Location: Bailleul
(50.3375°N, 2.8513°E)
Time: 13:35:59
(UTC+00:00)

Terra - Pass Details

Date: 06 August 2021
Orbit: 701 x 703 km, 98.2° (Epoch: 28 September)

Event Time Altitude Azimuth Distance (km) Brightness Sun altitude
Exits shadow 23:16:24 - 247° (WSW) 2,234 4.3 -22.7°
Reaches altitude 10° 23:16:47 10° 251° (WSW) 2,173 4.3 -22.7°
Maximum altitude 23:18:38 12° 275° (W) 2,036 4.3 -22.8°
Drops below altitude 10° 23:20:29 10° 298° (WNW) 2,180 4.8 -22.8°
Sets 23:24:17 0° 329° (NNW) 3,106 6.3 -22.9°
